Regional Weather Roundup
Issued by NWS

Home | Current Version | Previous Version | Graphics & Text | Print | Product List | Glossary On
Versions: 1 2 3 4 5 6 7 8 9 10 11 12 13 14 15 16 17 18 19 20 21 22 23 24 25 26 27 28 29 30 31 32 33 34 35 36 37 38 39 40 41 42 43 44 45 46 47 48 49 50
000
ASUS43 KDMX 210907
RWRIA

WEATHER ROUNDUP FOR IOWA
NATIONAL WEATHER SERVICE DES MOINES IA
400 AM CDT SUN SEP 21 2014

NOTE: "FAIR" INDICATES FEW OR NO CLOUDS BELOW 12,000 FEET WITH NO
SIGNIFICANT WEATHER AND/OR OBSTRUCTIONS TO VISIBILITY.

* - THESE STATIONS ARE NOT NWS STATIONS...THUS NOT UNDER NWS
QUALITY CONTROL.  THEY ALSO DO NOT REPORT WEATHER SUCH
AS PRECIPITATION OR FOG.

IAZ001>003-012>014-020>022-031>034-043>046-211000-
   NORTHWEST IOWA

CITY           SKY/WX    TMP DP  RH WIND       PRES   REMARKS
CARROLL *      CLEAR     54  48  82 NW8       30.03S
CHEROKEE *     CLEAR     54  48  82 W6        30.05S
DENISON *      CLEAR     52  52 100 CALM      30.05R
LE MARS *        N/A     52  48  87 NW5       30.08S
ORANGE CITY *  CLEAR     48  45  87 W6        30.07R
SHELDON *      CLEAR     54  46  76 NW8       30.04S
SIOUX CITY     CLEAR     54  49  83 W6        30.08S
SPENCER        CLEAR     53  46  77 NW15      30.03R
STORM LAKE *   CLEAR     52  50  93 W10       30.04S
$$

IAZ055>058-069>071-079>083-090>094-211000-
   SOUTHWEST IOWA

CITY           SKY/WX    TMP DP  RH WIND       PRES   REMARKS
ATLANTIC *     CLEAR     54  52  94 CALM      30.06R
AUDUBON *      CLEAR     54  46  76 NW3       30.06R
CLARINDA *     CLEAR     50  50 100 CALM      30.09R
COUNCIL BLFS * CLEAR     57  55  94 W8        30.08R
CRESTON *      CLEAR     52  50  93 W7        30.05S
HARLAN  *      CLEAR     54  52  94 W9        30.10R
LAMONI         CLEAR     53  50  89 W6        30.04S
RED OAK *      CLEAR     54  52  94 CALM      30.08R
SHENANDOAH *     N/A     52  52 100 SW3       30.09R
$$

IAZ047>049-059>061-072>074-084-211000-
   CENTRAL IOWA

CITY           SKY/WX    TMP DP  RH WIND       PRES   REMARKS
AMES           CLEAR     56  51  84 W12       29.98S
ANKENY *       CLEAR     57  52  82 W10       29.98F
CHARITON *     CLEAR     55  52  88 W9        30.01S
DES MOINES     CLEAR     56  51  84 W8        29.99F
GRINNELL*      CLEAR     55  52  88 W8        29.97S
KNOXVILLE *    CLEAR     54  50  87 W8        29.99R
MARSHALLTOWN   CLEAR     56  51  84 W8        29.95S
PELLA *        CLEAR     57  54  88 W9        29.99S
PERRY *          N/A     55  52  88 NW7       30.01S
$$

IAZ004>006-015-016-023>025-035-036-211000-
   NORTH CENTRAL IOWA

CITY           SKY/WX    TMP DP  RH WIND       PRES   REMARKS
ALGONA *       CLEAR     57  46  67 NW10G18   29.99R
CLARION *        N/A     54  50  87 NW9       29.97R
ESTHERVILLE    CLEAR     53  45  74 NW10      30.00R
FORT DODGE *   CLEAR     55  46  71 W7        30.01R
MASON CITY     CLEAR     53  49  86 W13       29.96R
FOREST CITY *  CLEAR     54  48  82 W9        29.96R
IOWA FALLS *     N/A     54  50  87 W9        29.97R
$$

IAZ007>011-017>019-026>030-037>042-050>054-066-211000-
   NORTHEAST IOWA

CITY           SKY/WX    TMP DP  RH WIND       PRES   REMARKS
CEDAR RAPIDS   CLEAR     54  53  97 W9        29.91S
CHARLES CITY * CLEAR     55  50  82 W10       29.92R
CLINTON *      CLEAR     54  50  87 W8        29.90S
DECORAH *      CLEAR     54  52  94 VRB6      29.86R
DUBUQUE        CLEAR     53  51  93 W14       29.85F
MONTICELLO *   CLEAR     55  54  94 W10       29.88S
OELWEIN *      CLEAR     55  54  94 W10       29.90S
WATERLOO       CLEAR     56  51  84 W13       29.91R
$$

IAZ064-065-067-068-078-211000-
   EAST CENTRAL IOWA

CITY           SKY/WX    TMP DP  RH WIND       PRES   REMARKS
DAVENPORT      CLEAR     53  50  89 W8        29.90S
IOWA CITY        N/A     54  52  93 W6        29.93F
MT. PLEASANT * CLEAR     57  52  82 W5        29.96R
MUSCATINE *    CLEAR     57  52  82 W8        29.93S
QUAD CITIES    CLEAR     56  51  84 W9        29.90S
$$

IAZ062-063-075>077-085>089-095>099-211000-
   SOUTHEAST IOWA

CITY           SKY/WX    TMP DP  RH WIND       PRES   REMARKS
BURLINGTON     CLEAR     58  53  84 W5        29.95R
FAIRFIELD *    CLEAR     55  52  88 W6        29.97S
FORT MADISON * CLEAR     59  54  82 W6        29.97S
KEOKUK *       CLEAR     59  54  82 NW8       29.97R
OSKALOOSA *      N/A     52  52 100 W7        29.98S
CENTERVILLE *  CLEAR     54  52  94 W5        30.02S
OTTUMWA        CLEAR     54  51  90 W7        29.97F
WASHINGTON *   CLEAR     55  54  94 W7        29.95S
$$

ABBREVIATIONS USED IN REMARKS
   TC - TEMPERATURES IN CELSIUS
  WCI - WIND CHILL INDEX
   HX - HEAT INDEX
  VSB - VISIBILITY
$$



USA.gov is the U.S. government's official web portal to all federal, state and local government web resources and services.